When you browse on this site, cookies collect data to enhance your experience and personalize the content and advertising you see.
Visit our Privacy Policy to learn more. By continuing to use the site, you agree to this use of cookies and data.
  • In United Kingdom
  • List of Countries
  • For 7 days
  • Water Temperature
  • Satellite Maps
  • Weather Map
  • Weather Widgets
  • user-avatar
    Login

    Hourly Weather Kecskemet

    Today, 21 April, Sunday

    Time Temperature Precipitation Wind Pressure Humidity
    00:00 +10°C° 0 mm 3 mps 758 mmHg 53%
    01:00 +10°C° 0 mm 3 mps 757 mmHg 54%
    02:00 +10°C° 0 mm 3 mps 757 mmHg 55%
    03:00 +9°C° 0 mm 3 mps 757 mmHg 57%
    04:00 +9°C° 0 mm 3 mps 757 mmHg 59%
    05:00 +10°C° 0 mm 3 mps 757 mmHg 57%
    06:00 +11°C° 0 mm 3 mps 757 mmHg 56%
    07:00 +12°C° 0 mm 4 mps 756 mmHg 55%
    08:00 +14°C° 0 mm 3 mps 756 mmHg 50%
    09:00 +17°C° 0 mm 3 mps 756 mmHg 45%
    10:00 +19°C° 0 mm 3 mps 756 mmHg 40%
    11:00 +20°C° 0 mm 4 mps 756 mmHg 38%
    12:00 +21°C° 0 mm 4 mps 755 mmHg 36%
    13:00 +22°C° 0 mm 4 mps 755 mmHg 33%
    14:00 +21°C° 0 mm 4 mps 754 mmHg 35%
    15:00 +21°C° 0 mm 4 mps 754 mmHg 37%
    16:00 +21°C° 0 mm 3 mps 754 mmHg 39%
    17:00 +19°C° 0 mm 3 mps 753 mmHg 43%
    18:00 +18°C° 0 mm 3 mps 753 mmHg 46%
    19:00 +16°C° 0 mm 2 mps 753 mmHg 50%
    20:00 +15°C° 0 mm 2 mps 753 mmHg 51%
    21:00 +14°C° 0 mm 2 mps 753 mmHg 53%
    22:00 +14°C° 0 mm 2 mps 753 mmHg 54%
    23:00 +13°C° 0 mm 2 mps 753 mmHg 56%

    Tomorrow, 22 April, Monday

    Time Temperature Precipitation Wind Pressure Humidity
    00:00 +12°C° 0 mm 2 mps 753 mmHg 59%
    01:00 +11°C° 0 mm 1 mps 753 mmHg 61%
    02:00 +11°C° 0 mm 1 mps 752 mmHg 62%
    03:00 +10°C° 0 mm 2 mps 752 mmHg 63%
    04:00 +9°C° 0 mm 2 mps 752 mmHg 64%
    05:00 +10°C° 0 mm 2 mps 751 mmHg 61%
    06:00 +13°C° 0 mm 1 mps 751 mmHg 59%
    07:00 +14°C° 0 mm 1 mps 751 mmHg 56%
    08:00 +16°C° 0 mm 2 mps 751 mmHg 51%
    09:00 +18°C° 0 mm 2 mps 751 mmHg 45%
    10:00 +20°C° 0 mm 2 mps 751 mmHg 40%
    11:00 +20°C° 0 mm 3 mps 751 mmHg 39%
    12:00 +20°C° 0 mm 3 mps 750 mmHg 38%
    13:00 +20°C° 0 mm 3 mps 750 mmHg 37%
    14:00 +21°C° 0 mm 3 mps 749 mmHg 37%
    15:00 +21°C° 0 mm 4 mps 749 mmHg 36%
    16:00 +21°C° 0 mm 4 mps 749 mmHg 36%
    17:00 +19°C° 0 mm 4 mps 748 mmHg 44%
    18:00 +17°C° 0 mm 4 mps 748 mmHg 53%
    19:00 +14°C° 0 mm 4 mps 748 mmHg 61%
    20:00 +14°C° 0 mm 4 mps 748 mmHg 63%
    21:00 +13°C° 0 mm 5 mps 748 mmHg 65%
    22:00 +13°C° 0 mm 6 mps 749 mmHg 68%
    23:00 +12°C° 0 mm 5 mps 749 mmHg 68%

    Day after tomorrow, 23 April, Tuesday

    Time Temperature Precipitation Wind Pressure Humidity
    00:00 +12°C° 0 mm 5 mps 749 mmHg 68%
    01:00 +10°C° 0 mm 5 mps 749 mmHg 69%
    02:00 +10°C° 0 mm 5 mps 749 mmHg 68%
    03:00 +10°C° 0 mm 5 mps 749 mmHg 68%
    04:00 +10°C° 0 mm 6 mps 749 mmHg 68%
    05:00 +9°C° 0.9 mm 6 mps 749 mmHg 74%
    06:00 +9°C° 0.9 mm 7 mps 749 mmHg 80%
    07:00 +7°C° 0.9 mm 8 mps 749 mmHg 87%
    08:00 +9°C° 1.8 mm 8 mps 750 mmHg 86%
    09:00 +9°C° 1.8 mm 8 mps 750 mmHg 86%
    10:00 +9°C° 1.8 mm 8 mps 750 mmHg 86%
    11:00 +10°C° 1 mm 8 mps 750 mmHg 83%
    12:00 +10°C° 1 mm 8 mps 750 mmHg 79%
    13:00 +11°C° 1 mm 8 mps 750 mmHg 76%
    14:00 +11°C° 0.3 mm 8 mps 749 mmHg 75%
    15:00 +11°C° 0.3 mm 7 mps 749 mmHg 75%
    16:00 +11°C° 0.3 mm 7 mps 749 mmHg 74%
    17:00 +11°C° 0.3 mm 6 mps 749 mmHg 76%
    18:00 +11°C° 0.3 mm 6 mps 749 mmHg 77%
    19:00 +12°C° 0.3 mm 5 mps 749 mmHg 79%
    20:00 +10°C° 0.6 mm 6 mps 749 mmHg 81%
    21:00 +10°C° 0.6 mm 6 mps 750 mmHg 82%
    22:00 +9°C° 0.6 mm 7 mps 750 mmHg 84%
    23:00 +9°C° 0 mm 7 mps 750 mmHg 84%

    24 April, Wednesday

    Time Temperature Precipitation Wind Pressure Humidity
    00:00 +9°C° 0 mm 7 mps 750 mmHg 84%
    01:00 +9°C° 0 mm 7 mps 751 mmHg 84%
    02:00 +9°C° 0.1 mm 7 mps 751 mmHg 85%
    03:00 +9°C° 0.1 mm 7 mps 751 mmHg 85%
    04:00 +9°C° 0.1 mm 7 mps 751 mmHg 86%
    05:00 +9°C° 0.8 mm 7 mps 751 mmHg 86%
    06:00 +9°C° 0.8 mm 7 mps 752 mmHg 86%
    07:00 +10°C° 0.8 mm 7 mps 752 mmHg 86%
    08:00 +12°C° 0.3 mm 7 mps 752 mmHg 79%
    09:00 +15°C° 0.3 mm 7 mps 753 mmHg 73%
    10:00 +17°C° 0.3 mm 7 mps 753 mmHg 66%
    11:00 +20°C° 0 mm 7 mps 753 mmHg 62%
    12:00 +21°C° 0 mm 7 mps 753 mmHg 58%
    13:00 +23°C° 0 mm 7 mps 752 mmHg 54%
    14:00 +23°C° 0.1 mm 7 mps 752 mmHg 54%
    15:00 +23°C° 0.1 mm 6 mps 752 mmHg 55%
    16:00 +23°C° 0.1 mm 6 mps 752 mmHg 56%
    17:00 +21°C° 0 mm 6 mps 752 mmHg 61%
    18:00 +19°C° 0 mm 5 mps 752 mmHg 66%
    19:00 +16°C° 0 mm 5 mps 752 mmHg 72%
    20:00 +15°C° 0 mm 5 mps 752 mmHg 74%
    21:00 +15°C° 0 mm 5 mps 753 mmHg 76%
    22:00 +14°C° 0 mm 5 mps 753 mmHg 78%
    23:00 +14°C° 0 mm 5 mps 753 mmHg 78%

    25 April, Thursday

    Time Temperature Precipitation Wind Pressure Humidity
    00:00 +14°C° 0 mm 5 mps 753 mmHg 78%
    01:00 +13°C° 0 mm 5 mps 753 mmHg 78%
    02:00 +13°C° 0 mm 5 mps 753 mmHg 79%
    03:00 +13°C° 0 mm 5 mps 753 mmHg 80%
    04:00 +13°C° 0 mm 5 mps 753 mmHg 81%
    05:00 +13°C° 0 mm 5 mps 754 mmHg 80%
    06:00 +14°C° 0 mm 5 mps 754 mmHg 78%
    07:00 +15°C° 0 mm 5 mps 754 mmHg 76%
    08:00 +17°C° 0 mm 5 mps 754 mmHg 72%
    09:00 +19°C° 0 mm 5 mps 755 mmHg 67%
    10:00 +21°C° 0 mm 5 mps 755 mmHg 63%
    11:00 +22°C° 0 mm 5 mps 754 mmHg 59%
    12:00 +25°C° 0 mm 5 mps 754 mmHg 55%
    13:00 +26°C° 0 mm 5 mps 754 mmHg 52%
    14:00 +26°C° 0 mm 5 mps 753 mmHg 52%
    15:00 +26°C° 0 mm 5 mps 753 mmHg 53%
    16:00 +26°C° 0 mm 5 mps 752 mmHg 53%
    17:00 +23°C° 0 mm 5 mps 752 mmHg 60%
    18:00 +21°C° 0 mm 5 mps 752 mmHg 67%
    19:00 +19°C° 0 mm 4 mps 752 mmHg 74%
    20:00 +19°C° 0 mm 5 mps 752 mmHg 74%
    21:00 +17°C° 0 mm 5 mps 752 mmHg 75%
    22:00 +16°C° 0 mm 5 mps 752 mmHg 75%
    23:00 +15°C° 0.1 mm 5 mps 752 mmHg 78%

    26 April, Friday

    Time Temperature Precipitation Wind Pressure Humidity
    00:00 +15°C° 0.1 mm 5 mps 751 mmHg 80%
    01:00 +14°C° 0.1 mm 4 mps 751 mmHg 82%
    02:00 +14°C° 0.1 mm 4 mps 751 mmHg 82%
    03:00 +14°C° 0.1 mm 4 mps 751 mmHg 81%
    04:00 +13°C° 0.1 mm 4 mps 751 mmHg 81%
    05:00 +14°C° 0 mm 4 mps 751 mmHg 79%
    06:00 +15°C° 0 mm 5 mps 751 mmHg 77%
    07:00 +16°C° 0 mm 5 mps 751 mmHg 75%
    08:00 +18°C° 0.6 mm 4 mps 751 mmHg 72%
    09:00 +20°C° 0.6 mm 4 mps 751 mmHg 69%
    10:00 +22°C° 0.6 mm 4 mps 751 mmHg 66%
    11:00 +24°C° 0 mm 3 mps 751 mmHg 60%
    12:00 +25°C° 0 mm 3 mps 751 mmHg 55%
    13:00 +27°C° 0 mm 3 mps 750 mmHg 49%
    14:00 +27°C° 0 mm 3 mps 750 mmHg 48%
    15:00 +27°C° 0 mm 3 mps 750 mmHg 47%
    16:00 +27°C° 0 mm 3 mps 750 mmHg 46%
    17:00 +23°C° 0.8 mm 4 mps 750 mmHg 57%
    18:00 +20°C° 0.8 mm 6 mps 750 mmHg 67%
    19:00 +16°C° 0.8 mm 7 mps 751 mmHg 78%
    20:00 +15°C° 0.7 mm 8 mps 751 mmHg 78%
    21:00 +13°C° 0.7 mm 8 mps 752 mmHg 78%
    22:00 +11°C° 0.7 mm 8 mps 753 mmHg 78%
    23:00 +11°C° 0.4 mm 7 mps 753 mmHg 77%
    Show more